"Pseudo-MPEC" for 1692F01

Created 2021 Jun 13 4:07:04 UT using Find_Orb

Click here for an explanation of pseudo-MPECs

 
 Astrometry: 
     1692F01 KC2021 06 109W,2.dT07foU4JKx5DT?^?80_T#\[A^OxDa-/oq[@/ok4GY=u8(4W94
     1692F01 KC2021 06 10F_p\.1%RLf;u]WW%H:N)M*)jYurmB2=$8Ki=#o]?jt5!Rn(b0]5nW94
     1692F01 KC2021 06 10fZMb,Astrometry@^7bWb+N?28jredacted;`'l8vNm^8PN,q.Y3W94
     1692F01 KC2021 06 10:Sq3j3j,rKr^dbEE.]A\*Zt[.Z,9?0F6C6IgvA`H9xfUC1d[-egOW95
     1692F01 KC2021 06 10O/,E#KUIaS:dt6_48x3$TVjrkwLWU1GelBi!k+T_I)v/=4aPmoa7W95
     1692F01 KC2021 06 10ARhnc,IuShmy0\VA/oE8k.UZo`M?Gd`y,T=8X8EF+D1ADAclick=W95
     1692F01 KC2021 06 11-6E(J!?;C^bay;mSX+here1J*2U(wQH4TdY644R-OOFk6E-)xehdW95
     1692F01 KC2021 06 116rPETMP[Exoyb(jP=v^FL*8bOEl'dfor4EaO;VPv!OEUkNEBEAZEW95
     1692F01 KC2021 06 11Gd]0m\VN!DtU+IUG,w[5C6ZK[VpW6oX-hmixBDwp(sU)S;'5*$KeW95
     1692F01 |C2021 06 11)aASXHv2U?ZyqVCnCQySZSH;BSsmr.mUL%X#l3vL2G\0pb-!a`5n807
     1692F01 |C2021 06 11/+6$^h[l[js;HP-\YH';XexplanationQWfRhgisW_QoMf/W5J%?807
     1692F01 |C2021 06 11W;yjd_vXd4C,UfY3L1\ywx..g24,CO+gmfLjxh,bWOo2Nyh9\AkZ807
     1692F01 KC2021 06 11*y3.:=n'04.2P-t-6i@,rsN1UpjVFpi.d`Fq6TKH*2w8#@2/8_8$474
     1692F01 KC2021 06 11;bZ_6+fZ9Q@pw7`+=c5O`'RmsS.wHpW-2HlR(_)H/Z:pe1YU`s\m474
     1692F01 KC2021 06 11yP/L]=I+g[ly]^Qew5g-I[W5ljD-c0cimlxG'jd(+)Z@qAjRxYyh474
     1692F01 KC2021 06 11#,Q],Gno6;O]nvd^v)A'2U]vF6tYi\ums':AP+]%hQU,iQ5d2?4_474
     1692F01 KC2021 06 11;ZOi9+O9R#tGDJR[)tf^Z0iJtVLnjec%;-r38'k%!lIx_crK,[EV474

Station data:
(474) Mount John Observatory, Lake Tekapo  (S43.987388 E170.464960)  New
   Zealand.  Observers A. C. Gilmore, P. M. Kilmartin. Measurer P. M.
   Kilmartin. 1.0-m f/7.7 reflector + CCD.
(807) Cerro Tololo Observatory, La Serena  (S30.169136 W70.805900)  Chile.
(W94) AMACS1, San Pedro de Atacama  (S22.953076 W68.179810)  Chile.
(W95) Observatorio Panameno, San Pedro de Atacama  (S22.953181 W68.179880)
   Chile.

Orbital elements:  1692F01
   Perihelion 2021 Jul 9.427805 +/- 0.10261 TT = 10:16:02 (JD 2459404.927805)
Epoch 2021 Jun 11.0 TT = JDT 2459376.5   Earth MOID: 0.0540   AutoNEOCP
M 350.73052232 +/- 0.1317158        (J2000 ecliptic)
n   0.32607082 +/- 0.00439036       Peri.   18.53616 +/- 0.1333236
a   2.09055416 +/- 0.0187647        Node   274.64225 +/- 0.0271116
e   0.4921228 +/- 0.00441252        Incl.    7.33988 +/- 0.0468408
P   3.02                   H 23.1   G  0.15   U  9.1  
q 1.06174459 +/- 0.000450288    Q 3.11936373 +/- 0.0375627
From 17 observations 2021 June 10-11 (32.4 hr); mean residual 0".33
Residuals in arcseconds: 
210610 W94  .28+  .22-    210611 W95  .11-  .40+    210611 474  .30+  .17-    
210610 W94  .05+  .09+    210611 W95  .23-  .12-    210611 474  .10+  .16-    
210610 W94  .57-  .14-    210611 W95  .69+  .07+    210611 474  .11-  .19+    
210610 W95  .04-  .49+    210611 807  .11-  .03+    210611 474  .04+  .04+    
210610 W95  .45+  .38-    210611 807  .10+  .18-    210611 474  .54-  .69+    
210610 W95  .16-  .50+    210611 807  .05-  .78-    

Ephemerides (geocentric):
Date (UTC) HH   RA              Dec         delta   r     elong  mag " sig PA
---- -- -- --  -------------   -----------  ------ ------ -----  --- ---- ---
2021 06 13 04  20 02 27.081   -33 22 47.63  .10772 1.1048 144.2 19.8 1.67  58
2021 06 13 05  20 02 51.098   -33 19 01.59  .10761 1.1047 144.2 19.8 1.73  58
2021 06 13 06  20 03 15.122   -33 15 14.77  .10749 1.1045 144.1 19.8 1.79  58
2021 06 13 07  20 03 39.152   -33 11 27.17  .10738 1.1044 144.1 19.8 1.85  58
2021 06 13 08  20 04 03.187   -33 07 38.79  .10727 1.1043 144.1 19.8 1.91  58
2021 06 13 09  20 04 27.229   -33 03 49.63  .10716 1.1041 144.0 19.8 1.97  58
2021 06 13 10  20 04 51.276   -32 59 59.68  .10704 1.1040 144.0 19.8 2.03  58
2021 06 13 11  20 05 15.329   -32 56 08.95  .10693 1.1039 143.9 19.8 2.10  58
2021 06 13 12  20 05 39.387   -32 52 17.44  .10682 1.1037 143.9 19.8 2.16  58
2021 06 13 13  20 06 03.450   -32 48 25.14  .10671 1.1036 143.9 19.8 2.23  58
2021 06 13 14  20 06 27.518   -32 44 32.07  .10660 1.1035 143.8 19.8 2.30  57
2021 06 13 15  20 06 51.591   -32 40 38.21  .10649 1.1034 143.8 19.8 2.37  57
2021 06 13 16  20 07 15.669   -32 36 43.57  .10638 1.1032 143.7 19.8 2.44  57
2021 06 13 17  20 07 39.751   -32 32 48.15  .10627 1.1031 143.7 19.8 2.51  57
2021 06 13 18  20 08 03.837   -32 28 51.95  .10616 1.1030 143.7 19.8 2.58  57
2021 06 13 19  20 08 27.928   -32 24 54.97  .10605 1.1028 143.6 19.8 2.65  57
2021 06 13 20  20 08 52.023   -32 20 57.20  .10595 1.1027 143.6 19.8 2.73  57
2021 06 13 21  20 09 16.121   -32 16 58.66  .10584 1.1026 143.5 19.8 2.80  57
2021 06 13 22  20 09 40.223   -32 12 59.34  .10573 1.1025 143.5 19.8 2.88  57
2021 06 13 23  20 10 04.329   -32 08 59.23  .10562 1.1023 143.4 19.8 2.96  57
2021 06 14 00  20 10 28.438   -32 04 58.35  .10552 1.1022 143.4 19.8 3.04  57
2021 06 14 01  20 10 52.551   -32 00 56.69  .10541 1.1021 143.4 19.8 3.12  57
2021 06 14 02  20 11 16.666   -31 56 54.25  .10531 1.1019 143.3 19.8 3.20  57
2021 06 14 03  20 11 40.784   -31 52 51.03  .10520 1.1018 143.3 19.8 3.28  57
2021 06 14 04  20 12 04.905   -31 48 47.04  .10510 1.1017 143.2 19.8 3.37  57
2021 06 14 05  20 12 29.028   -31 44 42.27  .10499 1.1016 143.2 19.8 3.45  56
2021 06 14 06  20 12 53.154   -31 40 36.72  .10489 1.1014 143.1 19.8 3.54  56
2021 06 14 07  20 13 17.282   -31 36 30.40  .10479 1.1013 143.1 19.8 3.63  56
2021 06 14 08  20 13 41.412   -31 32 23.30  .10468 1.1012 143.0 19.8 3.71  56
2021 06 14 09  20 14 05.544   -31 28 15.43  .10458 1.1010 143.0 19.8 3.80  56
2021 06 14 10  20 14 29.677   -31 24 06.78  .10448 1.1009 143.0 19.8 3.89  56
2021 06 14 11  20 14 53.812   -31 19 57.36  .10438 1.1008 142.9 19.8 3.99  56
2021 06 14 12  20 15 17.949   -31 15 47.16  .10428 1.1007 142.9 19.8 4.08  56
2021 06 14 13  20 15 42.086   -31 11 36.20  .10418 1.1005 142.8 19.8 4.17  56
2021 06 14 14  20 16 06.225   -31 07 24.46  .10408 1.1004 142.8 19.8 4.27  56
2021 06 14 15  20 16 30.365   -31 03 11.95  .10398 1.1003 142.7 19.8 4.37  56
2021 06 14 16  20 16 54.505   -30 58 58.68  .10388 1.1002 142.7 19.8 4.46  56
2021 06 14 17  20 17 18.646   -30 54 44.63  .10378 1.1000 142.6 19.8 4.56  56
2021 06 14 18  20 17 42.787   -30 50 29.82  .10368 1.0999 142.6 19.8 4.66  56
2021 06 14 19  20 18 06.928   -30 46 14.24  .10358 1.0998 142.5 19.8 4.77  56
2021 06 14 20  20 18 31.070   -30 41 57.89  .10348 1.0997 142.5 19.8 4.87  56
2021 06 14 21  20 18 55.211   -30 37 40.78  .10339 1.0995 142.4 19.8 4.97  55
2021 06 14 22  20 19 19.352   -30 33 22.91  .10329 1.0994 142.4 19.8 5.08  55
2021 06 14 23  20 19 43.493   -30 29 04.27  .10319 1.0993 142.3 19.8 5.18  55
2021 06 15 00  20 20 07.633   -30 24 44.87  .10310 1.0992 142.3 19.7 5.29  55
2021 06 15 01  20 20 31.772   -30 20 24.71  .10300 1.0990 142.3 19.7 5.40  55
2021 06 15 02  20 20 55.910   -30 16 03.79  .10291 1.0989 142.2 19.7 5.51  55
2021 06 15 03  20 21 20.047   -30 11 42.11  .10281 1.0988 142.2 19.7 5.62  55